[[{"header":{"parameterUnit":"m.s-1","parameterCategory":1,"la1":30.2991,"la2":30.254,"lo1":-89.0895,"lo2":-89.0444,"dy":0.0017,"dx":0.0017,"nx":28,"ny":28,"refTime":"2025-09-18T03:00:00:Z","depth":0,"parameterNumber":2,"parameterNumberName":"U-component_of_WINDS"},"data":[0,0,0,0,0,0,0,0,0,0,0,0,0,0,0,0,0,0,0,0,0,0,0,0,0,0,0,0,0,0,0,0,0,0,0,0,0,0,0,0,0,0,0,0,0,0,0,0,0,0,0,0,0,0,0,0,0,0,0.3438,0.3439,0,0.3501,0.3502,0.3502,0.355,0.355,0.3551,0.3551,0.3614,0.3615,0.3616,0,0,0,0,0,0,0,0,0,0,0,0,0,0.3357,0.3358,0.3438,0.3439,0.344,0.3501,0.3502,0.3503,0.355,0.355,0.3551,0.3551,0.3614,0.3615,0.3617,0,0,0,0,0,0,0,0,0,0,0,0,0,0.3403,0.3358,0.3438,0.3471,0.3474,0.3501,0.3502,0.3503,0.355,0.355,0.3551,0.3552,0.3613,0.3615,0.3617,0.3615,0,0,0.3623,0.3623,0,0,0,0,0,0,0,0,0.34,0.3406,0.3465,0.3469,0.3473,0.3518,0.3496,0.3541,0.355,0.3521,0.3551,0.3552,0.3582,0.3586,0.3596,0.3618,0.3621,0.3623,0.3624,0.3625,0.3625,0,0,0,0,0,0,0,0.3397,0.3403,0.3463,0.3466,0.347,0.3482,0.3489,0.3505,0.3547,0.3524,0.3527,0.3534,0.3584,0.3594,0.3598,0.3622,0.3623,0.3624,0.3626,0.3626,0.3644,0.3644,0,0,0,0,0,0,0.3389,0.34,0.3461,0.3465,0.3437,0.3482,0.3491,0.3503,0.3547,0.3554,0.3533,0.3536,0.3591,0.3596,0.3601,0.3601,0.3625,0.3626,0.3628,0.3645,0.3644,0.3643,0,0,0,0,0,0,0.3387,0.3394,0.3458,0.3434,0.3443,0.3483,0.3497,0.3504,0.3515,0.3554,0.3562,0.3537,0.3592,0.3598,0.3611,0.3603,0.3627,0.3629,0.3646,0.3645,0.3644,0.3601,0,0,0,0,0,0,0.3385,0.3393,0.3393,0.3433,0.3444,0.3468,0.3496,0.3505,0.3518,0.3522,0.3559,0.3566,0.3593,0.3608,0.3613,0.3606,0.363,0.3647,0.3645,0.3644,0.3603,0.3599,0.3595,0,0,0,0,0,0.3381,0.3379,0.3393,0.34,0.3445,0.3468,0.3474,0.3505,0.3517,0.3517,0.3543,0.3565,0.3604,0.3609,0.3615,0.3609,0.3647,0.3646,0.3644,0.3605,0.3599,0.3595,0,0,0,0,0,0,0.3336,0.3384,0.3401,0.3411,0.3435,0.3476,0.3477,0.3498,0.3518,0.3521,0.3558,0.3566,0.3575,0.3594,0.3599,0.3609,0.3628,0.3628,0.3596,0.3591,0.3587,0.3582,0.3632,0,0,0,0,0,0.3327,0.3342,0.3384,0.3389,0.34,0.3436,0.3447,0.3469,0.3495,0.3505,0.3531,0.3555,0.3573,0.3583,0.3602,0.3607,0.3615,0.3605,0.3601,0.3597,0.3596,0.3599,0.3594,0.3639,0.3639,0.3639,0,0,0.3309,0.3337,0.3345,0.338,0.3401,0.3415,0.3444,0.3458,0.3468,0.3507,0.3521,0.3541,0.357,0.3578,0.3584,0.3594,0.3586,0.3595,0.3592,0.3593,0.3597,0.3592,0.3589,0.3638,0.3638,0.3638,0,0,0.3283,0.3306,0.3312,0.3333,0.3365,0.3389,0.339,0.3428,0.3443,0.3457,0.3487,0.3499,0.3529,0.3548,0.3561,0.3542,0.3562,0.3547,0.3524,0.3526,0.3522,0.352,0.3511,0.3508,0.3546,0.3546,0.3546,0,0.3255,0.3278,0.3313,0.3324,0.3338,0.3375,0.3381,0.3399,0.3435,0.3443,0.3455,0.3492,0.3514,0.3527,0.3522,0.3533,0.3534,0.3542,0.352,0.3518,0.3516,0.3508,0.3505,0.3544,0.3544,0.3544,0.3544,0,0.3243,0.3258,0.3259,0.3293,0.3307,0.3316,0.3351,0.3361,0.3382,0.3404,0.3418,0.3446,0.347,0.3475,0.3496,0.3491,0.3496,0.3514,0.3533,0.3508,0.3502,0.3499,0.354,0.3541,0.3542,0.3542,0,0,0.3188,0.3241,0.3241,0.3256,0.3294,0.3306,0.3316,0.334,0.3347,0.3371,0.3379,0.3403,0.342,0.3435,0.3458,0.346,0.344,0.3477,0.3478,0.3468,0.3435,0.342,0.3416,0.3455,0.3455,0.3454,0.3432,0,0.3166,0.3186,0.3218,0.3227,0.3241,0.3276,0.3284,0.3308,0.3329,0.3343,0.3367,0.3383,0.3404,0.3414,0.3417,0.3442,0.3434,0.3444,0.3461,0.3462,0.3451,0.3413,0.3397,0.3375,0.343,0.3429,0.3429,0,0.3143,0.3165,0.3176,0.3212,0.3218,0.3226,0.325,0.3263,0.329,0.3306,0.3323,0.3347,0.3359,0.3378,0.3393,0.3399,0.3408,0.3421,0.3421,0.3423,0.3442,0.3411,0.3369,0.3364,0.3425,0.3426,0.3426,0,0.31,0.3132,0.3142,0.3155,0.3197,0.3201,0.3219,0.3247,0.3259,0.328,0.3288,0.331,0.3322,0.3338,0.3367,0.3379,0.3379,0.3401,0.339,0.339,0.3387,0.3387,0.3343,0.3396,0.3396,0.3396,0.3396,0,0.3071,0.3075,0.3123,0.3129,0.3136,0.3172,0.3176,0.3197,0.3222,0.3232,0.3264,0.3273,0.3312,0.3325,0.3349,0.3357,0.3362,0.3374,0.338,0.337,0.3368,0.3375,0.3377,0.3396,0.3396,0.3396,0.3396,0,0.3023,0.3055,0.3069,0.3108,0.3118,0.3121,0.3154,0.3161,0.3185,0.3197,0.3202,0.3239,0.3256,0.3288,0.3313,0.3329,0.3331,0.3343,0.3322,0.3325,0.3313,0.3313,0.3271,0.3267,0.3324,0.3323,0.3323,0,0.3001,0.3006,0.3046,0.3055,0.3072,0.3087,0.31,0.3135,0.3147,0.3178,0.318,0.32,0.3217,0.3243,0.3271,0.3291,0.3302,0.3286,0.3305,0.3294,0.3299,0.3298,0.3297,0.3281,0.328,0.3279,0.3279,0,0.2958,0.2974,0.2992,0.3015,0.3029,0.3049,0.307,0.3075,0.3116,0.3127,0.3145,0.3158,0.3185,0.3203,0.3227,0.3245,0.3267,0.3273,0.3271,0.326,0.3247,0.3252,0.3308,0.3273,0.3274,0.3274,0.3274,0.3275,0.2922,0.2927,0.2956,0.2974,0.2994,0.3013,0.3021,0.3046,0.3062,0.3086,0.3106,0.3122,0.3149,0.3183,0.3199,0.3211,0.3222,0.3221,0.322,0.3218,0.3213,0.3247,0.3216,0.3216,0.3217,0.3217,0.3217,0,0.2879,0.29,0.2916,0.2945,0.2959,0.2981,0.3005,0.3015,0.3029,0.3052,0.3069,0.3088,0.3107,0.3137,0.3157,0.3161,0.3172,0.3165,0.3164,0.3167,0.3203,0.3202,0.3155,0.3155,0.3155,0.3156,0.3156,0.3156,0.2858,0.2868,0.2887,0.2907,0.2927,0.2943,0.2955,0.2972,0.2991,0.3012,0.3027,0.3047,0.3073,0.3095,0.3112,0.3121,0.3126,0.3115,0.3126,0.3159,0.3165,0.317,0.3169,0.3116,0.3116,0.3089,0.3089,0.3088]},{"header":{"parameterUnit":"m.s-1","parameterCategory":1,"la1":30.2991,"la2":30.254,"lo1":-89.0895,"lo2":-89.0444,"dy":0.0017,"dx":0.0017,"nx":28,"ny":28,"refTime":"2025-09-18T03:00:00:Z","depth":0,"parameterNumber":3,"parameterNumberName":"V-component_of_WINDS"},"data":[0,0,0,0,0,0,0,0,0,0,0,0,0,0,0,0,0,0,0,0,0,0,0,0,0,0,0,0,0,0,0,0,0,0,0,0,0,0,0,0,0,0,0,0,0,0,0,0,0,0,0,0,0,0,0,0,0,0,3.3977,3.3977,0,3.3972,3.3972,3.3972,3.3945,3.3944,3.3943,3.3943,3.3937,3.3937,3.3938,0,0,0,0,0,0,0,0,0,0,0,0,0,3.3964,3.3965,3.3977,3.3977,3.3977,3.3972,3.3972,3.3971,3.3945,3.3944,3.3943,3.3942,3.3937,3.3937,3.3938,0,0,0,0,0,0,0,0,0,0,0,0,0,3.3966,3.3965,3.3977,3.3963,3.3962,3.3972,3.3972,3.3971,3.3945,3.3944,3.3943,3.3942,3.3937,3.3937,3.3938,3.3961,0,0,3.394,3.394,0,0,0,0,0,0,0,0,3.3966,3.3966,3.3965,3.3964,3.3962,3.3958,3.3965,3.3968,3.3945,3.3951,3.3943,3.3942,3.3945,3.3945,3.3946,3.3961,3.3961,3.394,3.394,3.3941,3.3941,0,0,0,0,0,0,0,3.3965,3.3966,3.3975,3.3965,3.3963,3.3957,3.3956,3.3965,3.3953,3.3951,3.3949,3.3948,3.3944,3.3945,3.3945,3.3961,3.394,3.3941,3.3941,3.3941,3.3995,3.3996,0,0,0,0,0,0,3.3967,3.3966,3.3975,3.3975,3.3962,3.3958,3.3957,3.396,3.3953,3.3951,3.3949,3.3947,3.3944,3.3945,3.3945,3.3971,3.3941,3.3941,3.3942,3.3994,3.3995,3.3996,0,0,0,0,0,0,3.3967,3.3968,3.3975,3.397,3.397,3.3959,3.3963,3.3961,3.3962,3.3952,3.395,3.3953,3.3944,3.3944,3.3957,3.3971,3.3942,3.3942,3.3993,3.3994,3.3996,3.4024,0,0,0,0,0,0,3.3967,3.3969,3.3977,3.397,3.3971,3.3988,3.3964,3.3961,3.3963,3.396,3.3955,3.3953,3.3943,3.3957,3.3958,3.3971,3.3943,3.3991,3.3993,3.3995,3.4022,3.4027,3.4031,0,0,0,0,0,3.3967,3.3985,3.3978,3.3979,3.3981,3.3988,3.3989,3.3977,3.3964,3.3973,3.3967,3.3953,3.397,3.3958,3.396,3.3973,3.399,3.3993,3.3995,3.402,3.4026,3.4031,0,0,0,0,0,0,3.3993,3.3984,3.3975,3.3993,3.3992,3.3984,3.3994,3.3983,3.3985,3.3983,3.3968,3.3967,3.3982,3.3979,3.3967,3.3995,3.3978,3.398,3.3996,3.4002,3.4006,3.4006,3.3943,0,0,0,0,0,3.4002,3.4008,3.4,3.4016,3.4016,3.4005,3.4008,3.3999,3.3997,3.3997,3.3991,3.399,3.3995,3.3998,3.4002,3.4022,3.402,3.4032,3.4037,3.404,3.4042,3.4052,3.4057,3.4004,3.4004,3.4004,0,0,3.4018,3.4014,3.4019,3.4021,3.4019,3.4026,3.4005,3.4013,3.4018,3.3998,3.401,3.4006,3.4004,3.4021,3.4028,3.4018,3.4057,3.4043,3.4046,3.4046,3.4055,3.406,3.4065,3.4005,3.4005,3.4005,0,0,3.4051,3.4049,3.4062,3.4061,3.4058,3.4051,3.4055,3.4049,3.4045,3.4058,3.4042,3.4048,3.4057,3.4056,3.4057,3.4091,3.4078,3.4093,3.4114,3.4124,3.4128,3.4132,3.4144,3.4148,3.4095,3.4095,3.4095,0,3.4071,3.4081,3.407,3.4079,3.4081,3.4063,3.4076,3.4075,3.4075,3.4076,3.4066,3.4077,3.4074,3.409,3.4098,3.41,3.4103,3.4093,3.4129,3.4132,3.4136,3.4146,3.4151,3.4097,3.4097,3.4097,3.4097,0,3.4106,3.4114,3.4125,3.4124,3.4127,3.4139,3.4128,3.4133,3.4124,3.4119,3.4131,3.4128,3.413,3.4134,3.4126,3.4149,3.4143,3.4132,3.4113,3.4143,3.4152,3.4156,3.4099,3.4099,3.4098,3.4098,0,0,3.4154,3.4148,3.4152,3.4152,3.4149,3.4154,3.4165,3.4168,3.4172,3.4173,3.4181,3.4189,3.4179,3.4179,3.4171,3.418,3.4207,3.4167,3.4167,3.4174,3.4231,3.4239,3.4244,3.4199,3.42,3.4201,3.4231,0,3.4185,3.4203,3.4193,3.4212,3.4219,3.4203,3.4212,3.4211,3.4207,3.4212,3.4207,3.4213,3.4198,3.4199,3.4207,3.4202,3.4218,3.42,3.4206,3.4206,3.4205,3.425,3.4258,3.4287,3.4235,3.4236,3.4236,0,3.4223,3.4225,3.4245,3.4241,3.4243,3.4252,3.4254,3.4259,3.4258,3.4254,3.4256,3.4246,3.4256,3.4239,3.4253,3.4241,3.4243,3.4241,3.4242,3.4241,3.4222,3.4248,3.4296,3.43,3.4242,3.4242,3.4241,0,3.4255,3.4263,3.4276,3.4276,3.4272,3.4278,3.4277,3.4275,3.4278,3.428,3.4281,3.4285,3.4287,3.429,3.4281,3.4269,3.4296,3.4278,3.4292,3.4292,3.4297,3.4296,3.4344,3.4301,3.4301,3.4301,3.4301,0,3.4289,3.4301,3.429,3.4298,3.4311,3.4301,3.4314,3.4311,3.431,3.4317,3.4304,3.4311,3.4299,3.4305,3.4298,3.431,3.4311,3.4308,3.4306,3.4308,3.4309,3.4309,3.4306,3.4302,3.4302,3.4301,3.4301,0,3.4326,3.4319,3.4331,3.4327,3.4326,3.4336,3.4332,3.4339,3.4335,3.4344,3.4345,3.4337,3.4343,3.4335,3.4341,3.4336,3.4352,3.4348,3.4353,3.4351,3.4365,3.4363,3.4413,3.4418,3.4373,3.4374,3.4374,0,3.4347,3.4357,3.4353,3.4357,3.4357,3.4363,3.4366,3.4356,3.436,3.436,3.4367,3.4372,3.4375,3.4386,3.4381,3.4385,3.4379,3.4397,3.438,3.4382,3.4378,3.4377,3.4378,3.4399,3.44,3.44,3.4401,0,3.4386,3.4383,3.4387,3.4391,3.4395,3.4397,3.4398,3.4402,3.4392,3.4397,3.4403,3.4406,3.4412,3.4417,3.4419,3.4418,3.4408,3.4407,3.441,3.4411,3.4413,3.4411,3.4361,3.4405,3.4404,3.4404,3.4404,3.4404,3.4415,3.4423,3.4422,3.4427,3.4428,3.4429,3.4436,3.4432,3.4437,3.4441,3.4436,3.4443,3.4443,3.4445,3.4445,3.4451,3.4444,3.4449,3.445,3.4451,3.4452,3.4414,3.4452,3.4452,3.4452,3.4452,3.4451,0,3.4452,3.4451,3.4457,3.4459,3.4464,3.4455,3.4456,3.446,3.4467,3.4468,3.4472,3.4479,3.4485,3.448,3.4485,3.449,3.4485,3.4491,3.449,3.449,3.4459,3.4455,3.4495,3.4495,3.4495,3.4495,3.4495,3.4495,3.4472,3.4484,3.448,3.4493,3.4492,3.4499,3.4501,3.4502,3.4503,3.4512,3.4516,3.4513,3.4512,3.4516,3.4521,3.4519,3.4521,3.4529,3.4525,3.4496,3.4492,3.4488,3.4484,3.4529,3.4529,3.4555,3.4556,3.4556]}]]